[[{"header":{"parameterUnit":"m.s-1","parameterCategory":1,"la1":30.2991,"la2":30.254,"lo1":-89.0895,"lo2":-89.0444,"dy":0.0017,"dx":0.0017,"nx":28,"ny":28,"refTime":"2023-10-05T21:00:00:Z","depth":0,"parameterNumber":2,"parameterNumberName":"U-component_of_WINDS"},"data":[0,0,0,0,0,0,0,0,0,0,0,0,0,0,0,0,0,0,0,0,0,0,0,0,0,0,0,0,0,0,0,0,0,0,0,0,0,0,0,0,0,0,0,0,0,0,0,0,0,0,0,0,0,0,0,0,0,0,-4.2523,-4.2523,0,-4.2493,-4.2493,-4.2492,-4.2362,-4.2359,-4.2356,-4.2353,-4.2324,-4.2326,-4.2328,0,0,0,0,0,0,0,0,0,0,0,0,0,-4.2472,-4.2473,-4.2524,-4.2523,-4.2523,-4.2493,-4.2493,-4.2492,-4.2363,-4.2359,-4.2355,-4.2352,-4.2324,-4.2326,-4.2329,0,0,0,0,0,0,0,0,0,0,0,0,0,-4.2473,-4.2474,-4.2524,-4.2454,-4.2448,-4.2493,-4.2493,-4.2492,-4.2363,-4.2359,-4.2354,-4.235,-4.2323,-4.2326,-4.2329,-4.2439,0,0,-4.2339,-4.234,0,0,0,0,0,0,0,0,-4.2473,-4.2475,-4.2465,-4.2459,-4.2452,-4.2427,-4.2464,-4.2475,-4.2364,-4.2396,-4.2353,-4.2348,-4.2362,-4.2362,-4.2366,-4.2438,-4.2437,-4.2339,-4.2341,-4.2342,-4.2343,0,0,0,0,0,0,0,-4.2473,-4.2476,-4.2511,-4.2465,-4.2457,-4.2426,-4.2421,-4.2465,-4.2405,-4.2392,-4.2383,-4.2381,-4.2358,-4.2364,-4.2365,-4.2436,-4.2339,-4.2341,-4.2343,-4.2345,-4.2598,-4.2603,0,0,0,0,0,0,-4.2483,-4.2477,-4.2512,-4.251,-4.2452,-4.243,-4.2425,-4.2439,-4.2404,-4.2394,-4.2385,-4.2375,-4.236,-4.2361,-4.2363,-4.2491,-4.2342,-4.2345,-4.2347,-4.2594,-4.2599,-4.2605,0,0,0,0,0,0,-4.2482,-4.2487,-4.2514,-4.2491,-4.2492,-4.2436,-4.2453,-4.2441,-4.2447,-4.2398,-4.2387,-4.2402,-4.2357,-4.2359,-4.2421,-4.2488,-4.2346,-4.2349,-4.2588,-4.2595,-4.2602,-4.2748,0,0,0,0,0,0,-4.2481,-4.2488,-4.2528,-4.2493,-4.2494,-4.2572,-4.2457,-4.2444,-4.2452,-4.2439,-4.2411,-4.2402,-4.2353,-4.2418,-4.2425,-4.249,-4.2352,-4.2582,-4.2591,-4.26,-4.2737,-4.2759,-4.2778,0,0,0,0,0,-4.248,-4.2571,-4.2531,-4.2536,-4.2543,-4.2576,-4.2577,-4.2518,-4.2458,-4.2499,-4.2468,-4.2403,-4.2479,-4.2425,-4.2432,-4.2499,-4.2577,-4.2588,-4.2599,-4.2727,-4.2755,-4.2778,0,0,0,0,0,0,-4.2617,-4.2565,-4.252,-4.2602,-4.2595,-4.2554,-4.2604,-4.2549,-4.2559,-4.2546,-4.2474,-4.2469,-4.2542,-4.2526,-4.2467,-4.2605,-4.2517,-4.253,-4.2613,-4.2638,-4.2658,-4.2661,-4.2354,0,0,0,0,0,-4.2656,-4.2686,-4.264,-4.2717,-4.2715,-4.2661,-4.2673,-4.2629,-4.2618,-4.2614,-4.2587,-4.2581,-4.2603,-4.2619,-4.2637,-4.2733,-4.2726,-4.2783,-4.2804,-4.2821,-4.2833,-4.2884,-4.291,-4.2641,-4.2641,-4.2641,0,0,-4.2739,-4.2714,-4.2738,-4.2744,-4.2732,-4.2767,-4.2659,-4.2699,-4.2724,-4.262,-4.2678,-4.2659,-4.2646,-4.2727,-4.276,-4.2716,-4.2906,-4.2835,-4.2849,-4.2852,-4.2898,-4.2924,-4.2947,-4.2648,-4.2647,-4.2646,0,0,-4.2906,-4.289,-4.2953,-4.2944,-4.2928,-4.2891,-4.2907,-4.2875,-4.2858,-4.2914,-4.2838,-4.2866,-4.2906,-4.2901,-4.2903,-4.307,-4.3011,-4.3077,-4.3187,-4.3237,-4.3258,-4.3277,-4.3338,-4.336,-4.309,-4.309,-4.309,0,-4.3011,-4.3059,-4.2993,-4.3039,-4.3044,-4.2951,-4.3015,-4.3009,-4.3001,-4.3007,-4.2957,-4.3005,-4.299,-4.3069,-4.3109,-4.3114,-4.313,-4.3081,-4.326,-4.3278,-4.3295,-4.3352,-4.3375,-4.3098,-4.3097,-4.3097,-4.3096,0,-4.3189,-4.3223,-4.3276,-4.327,-4.3281,-4.3336,-4.3279,-4.3299,-4.3253,-4.3222,-4.3282,-4.326,-4.3273,-4.3288,-4.3244,-4.3361,-4.3334,-4.3273,-4.3184,-4.333,-4.3383,-4.3404,-4.311,-4.3107,-4.3105,-4.3103,0,0,-4.3443,-4.3399,-4.342,-4.3417,-4.3392,-4.3418,-4.3469,-4.348,-4.3499,-4.3496,-4.3538,-4.3574,-4.3518,-4.3521,-4.3476,-4.352,-4.3655,-4.3454,-4.3452,-4.3494,-4.3785,-4.3832,-4.3858,-4.3616,-4.3619,-4.3623,-4.3786,0,-4.3605,-4.3688,-4.3631,-4.3725,-4.3756,-4.3668,-4.3713,-4.3704,-4.3676,-4.3699,-4.3669,-4.3696,-4.3619,-4.3621,-4.366,-4.3631,-4.3713,-4.3618,-4.3656,-4.3658,-4.3663,-4.3885,-4.3935,-4.409,-4.3806,-4.381,-4.3812,0,-4.3804,-4.381,-4.3907,-4.3877,-4.3888,-4.3929,-4.3936,-4.3959,-4.3947,-4.3923,-4.3927,-4.3871,-4.392,-4.3831,-4.3899,-4.3835,-4.3847,-4.3835,-4.384,-4.3842,-4.3745,-4.3896,-4.4138,-4.4163,-4.3844,-4.3841,-4.3839,0,-4.3982,-4.4014,-4.4076,-4.4076,-4.4042,-4.4073,-4.4061,-4.4044,-4.4055,-4.406,-4.4067,-4.4079,-4.4086,-4.4097,-4.4046,-4.3986,-4.4121,-4.4027,-4.4104,-4.4106,-4.4138,-4.4137,-4.4388,-4.4143,-4.4143,-4.4142,-4.4142,0,-4.417,-4.4233,-4.4156,-4.4195,-4.4263,-4.4197,-4.4267,-4.4245,-4.4231,-4.4265,-4.4189,-4.4223,-4.4152,-4.4179,-4.4139,-4.4202,-4.4205,-4.4189,-4.4178,-4.4197,-4.4199,-4.4205,-4.4193,-4.4149,-4.4147,-4.4146,-4.4145,0,-4.4381,-4.4331,-4.4394,-4.4356,-4.4349,-4.4401,-4.437,-4.4404,-4.4371,-4.4415,-4.4422,-4.4371,-4.4398,-4.4348,-4.4369,-4.4342,-4.4431,-4.4402,-4.4435,-4.4427,-4.4507,-4.4501,-4.4772,-4.4805,-4.4538,-4.4541,-4.4543,0,-4.4504,-4.4551,-4.4519,-4.4535,-4.4527,-4.4555,-4.4565,-4.4502,-4.4516,-4.4506,-4.4543,-4.4564,-4.4577,-4.4626,-4.4591,-4.4607,-4.458,-4.4673,-4.4582,-4.46,-4.4583,-4.4582,-4.4587,-4.4693,-4.4696,-4.4699,-4.4701,0,-4.473,-4.4703,-4.4721,-4.4731,-4.4745,-4.475,-4.475,-4.4768,-4.47,-4.4721,-4.4747,-4.4758,-4.4779,-4.4802,-4.481,-4.4798,-4.474,-4.473,-4.4749,-4.4769,-4.4787,-4.478,-4.4488,-4.4724,-4.4722,-4.472,-4.4719,-4.4718,-4.4902,-4.4939,-4.4923,-4.4945,-4.4938,-4.494,-4.4971,-4.4942,-4.4962,-4.4975,-4.4936,-4.4972,-4.4959,-4.4964,-4.4958,-4.4986,-4.4945,-4.4972,-4.4979,-4.4987,-4.5001,-4.4782,-4.4987,-4.4987,-4.4986,-4.4985,-4.4985,0,-4.5125,-4.5109,-4.5131,-4.5132,-4.5151,-4.5092,-4.5089,-4.5108,-4.5141,-4.5133,-4.5148,-4.518,-4.5201,-4.5169,-4.5185,-4.5214,-4.5188,-4.5221,-4.5219,-4.5217,-4.5036,-4.5019,-4.5242,-4.5242,-4.5242,-4.5241,-4.5241,-4.5241,-4.5243,-4.5304,-4.5276,-4.5333,-4.5317,-4.5352,-4.5355,-4.5356,-4.535,-4.5389,-4.5406,-4.5384,-4.5367,-4.5381,-4.5399,-4.5388,-4.5399,-4.5442,-4.5423,-4.5255,-4.523,-4.5206,-4.5189,-4.5444,-4.5444,-4.5601,-4.5603,-4.5604]},{"header":{"parameterUnit":"m.s-1","parameterCategory":1,"la1":30.2991,"la2":30.254,"lo1":-89.0895,"lo2":-89.0444,"dy":0.0017,"dx":0.0017,"nx":28,"ny":28,"refTime":"2023-10-05T21:00:00:Z","depth":0,"parameterNumber":3,"parameterNumberName":"V-component_of_WINDS"},"data":[0,0,0,0,0,0,0,0,0,0,0,0,0,0,0,0,0,0,0,0,0,0,0,0,0,0,0,0,0,0,0,0,0,0,0,0,0,0,0,0,0,0,0,0,0,0,0,0,0,0,0,0,0,0,0,0,0,0,-1.1235,-1.1235,0,-1.1219,-1.1218,-1.1218,-1.1171,-1.117,-1.1169,-1.1168,-1.1153,-1.1153,-1.1154,0,0,0,0,0,0,0,0,0,0,0,0,0,-1.1224,-1.1225,-1.1235,-1.1235,-1.1234,-1.1219,-1.1218,-1.1218,-1.1172,-1.117,-1.1169,-1.1168,-1.1152,-1.1153,-1.1154,0,0,0,0,0,0,0,0,0,0,0,0,0,-1.1221,-1.1225,-1.1235,-1.1209,-1.1207,-1.1219,-1.1218,-1.1218,-1.1172,-1.117,-1.1169,-1.1167,-1.1152,-1.1153,-1.1154,-1.119,0,0,-1.1156,-1.1157,0,0,0,0,0,0,0,0,-1.1221,-1.1221,-1.1213,-1.1211,-1.1208,-1.1195,-1.1209,-1.1209,-1.1172,-1.1185,-1.1168,-1.1167,-1.1168,-1.1168,-1.1168,-1.1189,-1.1188,-1.1156,-1.1157,-1.1157,-1.1157,0,0,0,0,0,0,0,-1.1221,-1.1222,-1.1228,-1.1213,-1.121,-1.1198,-1.1196,-1.1209,-1.1186,-1.1184,-1.118,-1.1179,-1.1167,-1.1167,-1.1167,-1.1188,-1.1156,-1.1157,-1.1158,-1.1158,-1.1235,-1.1237,0,0,0,0,0,0,-1.1225,-1.1222,-1.1229,-1.1228,-1.1211,-1.12,-1.1197,-1.1201,-1.1185,-1.1181,-1.118,-1.1177,-1.1167,-1.1166,-1.1167,-1.1206,-1.1157,-1.1158,-1.1158,-1.1234,-1.1236,-1.1237,0,0,0,0,0,0,-1.1225,-1.1226,-1.123,-1.1224,-1.1224,-1.1201,-1.1206,-1.1202,-1.1202,-1.1183,-1.1178,-1.1186,-1.1165,-1.1165,-1.1184,-1.1205,-1.1158,-1.1159,-1.1232,-1.1234,-1.1236,-1.1286,0,0,0,0,0,0,-1.1225,-1.1227,-1.124,-1.1225,-1.1224,-1.1247,-1.1208,-1.1202,-1.1204,-1.1199,-1.1186,-1.1183,-1.1164,-1.1183,-1.1185,-1.1205,-1.116,-1.123,-1.1233,-1.1236,-1.1283,-1.129,-1.1296,0,0,0,0,0,-1.1225,-1.1256,-1.1241,-1.1242,-1.1241,-1.1249,-1.1248,-1.1226,-1.1206,-1.1219,-1.1206,-1.1183,-1.1202,-1.1185,-1.1187,-1.1208,-1.1228,-1.1232,-1.1235,-1.1279,-1.1288,-1.1296,0,0,0,0,0,0,-1.1275,-1.1253,-1.1237,-1.1263,-1.1258,-1.1241,-1.1257,-1.1237,-1.1238,-1.1233,-1.1206,-1.1204,-1.1225,-1.1218,-1.12,-1.124,-1.1211,-1.1215,-1.1244,-1.1253,-1.1259,-1.1261,-1.116,0,0,0,0,0,-1.1289,-1.1297,-1.1278,-1.1303,-1.1301,-1.128,-1.1282,-1.1266,-1.1259,-1.1257,-1.1245,-1.124,-1.1244,-1.1248,-1.1252,-1.1281,-1.1277,-1.1296,-1.1303,-1.1309,-1.1313,-1.1326,-1.1334,-1.1249,-1.1249,-1.1249,0,0,-1.1318,-1.1307,-1.1314,-1.1313,-1.1307,-1.1315,-1.1278,-1.129,-1.1296,-1.1259,-1.1275,-1.1266,-1.1258,-1.1282,-1.1292,-1.1277,-1.1335,-1.1313,-1.1318,-1.1319,-1.1331,-1.1339,-1.1346,-1.1251,-1.1251,-1.125,0,0,-1.1376,-1.1369,-1.1388,-1.1382,-1.1373,-1.1359,-1.1363,-1.1349,-1.1341,-1.1357,-1.1329,-1.1335,-1.1344,-1.1339,-1.1338,-1.1392,-1.137,-1.1394,-1.1429,-1.1443,-1.145,-1.1455,-1.1473,-1.148,-1.1397,-1.1398,-1.1398,0,-1.1413,-1.1426,-1.1401,-1.1413,-1.1413,-1.1379,-1.1398,-1.1394,-1.1387,-1.1387,-1.137,-1.1379,-1.1372,-1.1393,-1.1406,-1.1406,-1.141,-1.1395,-1.1451,-1.1456,-1.1461,-1.1478,-1.1485,-1.14,-1.14,-1.14,-1.1399,0,-1.1471,-1.148,-1.1497,-1.149,-1.1491,-1.1507,-1.1484,-1.1489,-1.1472,-1.1458,-1.1474,-1.1463,-1.1463,-1.1467,-1.1451,-1.1485,-1.1476,-1.1456,-1.1426,-1.1473,-1.1488,-1.1494,-1.1404,-1.1403,-1.1403,-1.1402,0,0,-1.1561,-1.1539,-1.1545,-1.1541,-1.1527,-1.1534,-1.1547,-1.1546,-1.155,-1.1546,-1.1556,-1.1564,-1.1544,-1.1542,-1.1525,-1.1537,-1.1578,-1.1514,-1.1514,-1.1526,-1.1614,-1.1629,-1.1637,-1.1564,-1.1565,-1.1566,-1.1615,0,-1.1615,-1.1637,-1.1614,-1.164,-1.1647,-1.1615,-1.1626,-1.1619,-1.1607,-1.1611,-1.1597,-1.1602,-1.1576,-1.1575,-1.1585,-1.1571,-1.1596,-1.1567,-1.1573,-1.1573,-1.1575,-1.1646,-1.1662,-1.1708,-1.1621,-1.1622,-1.1622,0,-1.168,-1.1678,-1.1705,-1.1688,-1.169,-1.1701,-1.1698,-1.1702,-1.1693,-1.1683,-1.168,-1.1659,-1.167,-1.1642,-1.1656,-1.1638,-1.1638,-1.1632,-1.1633,-1.1632,-1.16,-1.1646,-1.1723,-1.1729,-1.1632,-1.1631,-1.163,0,-1.1742,-1.1745,-1.1761,-1.1759,-1.174,-1.1748,-1.1741,-1.173,-1.173,-1.1727,-1.1727,-1.1725,-1.1725,-1.1724,-1.1702,-1.1683,-1.1719,-1.1689,-1.1711,-1.1711,-1.172,-1.1719,-1.1797,-1.1721,-1.1721,-1.1721,-1.1721,0,-1.1803,-1.1821,-1.1788,-1.1798,-1.1816,-1.179,-1.1808,-1.1798,-1.1788,-1.1795,-1.1766,-1.1773,-1.1745,-1.1748,-1.1732,-1.1746,-1.1746,-1.1738,-1.1733,-1.174,-1.1741,-1.1739,-1.1735,-1.1723,-1.1723,-1.1722,-1.1722,0,-1.1875,-1.1854,-1.1869,-1.1849,-1.1845,-1.1859,-1.1842,-1.185,-1.1835,-1.1844,-1.1844,-1.1821,-1.1824,-1.1802,-1.1801,-1.179,-1.1812,-1.1802,-1.1815,-1.1811,-1.1834,-1.1832,-1.1913,-1.1921,-1.1841,-1.1842,-1.1843,0,-1.1915,-1.1928,-1.1909,-1.1911,-1.1905,-1.1909,-1.1909,-1.1883,-1.1884,-1.1873,-1.1882,-1.1882,-1.1881,-1.1887,-1.187,-1.1868,-1.1857,-1.1886,-1.1857,-1.1863,-1.1856,-1.1856,-1.1856,-1.1892,-1.1893,-1.1894,-1.1894,0,-1.1989,-1.1978,-1.1978,-1.1975,-1.1975,-1.1971,-1.1966,-1.1969,-1.1941,-1.1943,-1.1945,-1.1944,-1.1942,-1.1942,-1.1937,-1.1929,-1.1906,-1.1903,-1.1908,-1.1915,-1.1921,-1.1917,-1.183,-1.1902,-1.1901,-1.19,-1.19,-1.19,-1.2046,-1.2054,-1.2042,-1.2043,-1.2036,-1.2031,-1.2037,-1.2022,-1.2023,-1.2019,-1.2004,-1.2008,-1.1997,-1.1988,-1.1981,-1.1984,-1.197,-1.1977,-1.1979,-1.1981,-1.1985,-1.1922,-1.1983,-1.1983,-1.1983,-1.1982,-1.1982,0,-1.2117,-1.2107,-1.2108,-1.21,-1.2101,-1.208,-1.2072,-1.2074,-1.2078,-1.2069,-1.2068,-1.2069,-1.2069,-1.2051,-1.2048,-1.2054,-1.2043,-1.2054,-1.2053,-1.2051,-1.1998,-1.1993,-1.2062,-1.2062,-1.2062,-1.2062,-1.2062,-1.2062,-1.2154,-1.2167,-1.2154,-1.2163,-1.2153,-1.2156,-1.2153,-1.2148,-1.2141,-1.2144,-1.2143,-1.2131,-1.2118,-1.2114,-1.2112,-1.2107,-1.2107,-1.2121,-1.2112,-1.2063,-1.2055,-1.2048,-1.2043,-1.2121,-1.2121,-1.2165,-1.2165,-1.2165]}]]